World > North America > United States > Oregon

Lebanon, Oregon Regional Weather

Lat: 44.53N, Lon: 122.9W
Wx Zone: ORZ008
Feedback

Lebanon, OR Regional Weather

Expires:202002271200;;169637
ASUS46 KPQR 271110
RWROR 

OREGON REGIONAL WEATHER ROUNDUP
NATIONAL WEATHER SERVICE PORTLAND OR
300 AM PST THU FEB 27 2020

NOTE: "FAIR" INDICATES FEW OR NO CLOUDS BELOW 12,000 FEET WITH
NO SIGNIFICANT WEATHER AND/OR OBSTRUCTIONS TO VISIBILITY.


ORZ001>013-271200-
NORTHWEST OREGON

  
CITY           SKY/WX    TMP DP  RH WIND       PRES   REMARKS
ASTORIA        FOG       40  39  97 CALM      30.49S VSB 1/2          
TILLAMOOK      PTCLDY    36  36 100 SE3       30.50S FOG              
NEWPORT        CLEAR     36  36 100 CALM      30.49S                  
FLORENCE       FAIR      38  37  99 CALM      30.44F                  
PORTLAND       PTCLDY    37  34  89 CALM      30.50S                  
VANCOUVER WA   CLEAR     34  30  85 CALM      30.49F                  
SCAPPOOSE      CLEAR     35  33  92 CALM      30.49F                  
HILLSBORO      PTCLDY    33  32  96 CALM      30.48F                  
AURORA         CLEAR     37  34  89 NE3       30.49F                  
MCMINNVILLE    CLEAR     34  33  96 W3        30.47F FOG              
SALEM          CLEAR     34  33  96 CALM      30.47F                  
CORVALLIS      CLEAR     36  35  96 S3        30.48F                  
EUGENE         PTCLDY    32  31  96 SW5       30.46F FOG              
CRESWELL       FOG       37  37 100 CALM      30.45F VSB 1/4          
$$


SKY/WX - Weather  TMP - Temperature  DP - Dew Point  RH - Relative Humidity
WIND - Wind Direction/Speed PRES - Barometric Pressure VSB - Visibility
WCI - Wind Chill Index E13G22 Wind - East Wind 13 mph/Gusts of 22 mph
Lebanon Weather Map
What is UTC time?